Time,TemperatureF,DewpointF,PressureIn,WindDirection,WindDirectionDegrees,WindSpeedMPH,WindSpeedGustMPH,Humidity,HourlyPrecipIn,Conditions,Clouds,dailyrainin,SoftwareType,DateUTC
2013-03-18 00:00:00,22.8,12.1,29.89,SE,144,7.0,7.0,63,0.00,CLR,,0.00,WeatherDisplay:10.37,2013-03-18 05:00:00,
2013-03-18 00:05:00,23.1,12.4,29.89,SE,136,1.0,8.0,63,0.00,CLR,,0.00,WeatherDisplay:10.37,2013-03-18 05:05:00,
2013-03-18 00:10:00,23.2,12.4,29.89,SE,126,3.0,9.0,63,0.00,CLR,,0.00,WeatherDisplay:10.37,2013-03-18 05:10:00,
2013-03-18 00:15:00,23.4,12.6,29.88,SE,131,1.0,9.0,63,0.00,CLR,,0.00,WeatherDisplay:10.37,2013-03-18 05:15:00,
2013-03-18 00:20:00,23.4,12.6,29.88,SE,133,9.0,10.0,63,0.00,CLR,,0.00,WeatherDisplay:10.37,2013-03-18 05:20:00,
2013-03-18 00:25:00,23.5,12.8,29.88,SE,139,12.0,12.0,63,0.00,CLR,,0.00,WeatherDisplay:10.37,2013-03-18 05:25:00,
2013-03-18 00:30:00,23.5,12.8,29.88,SE,140,6.0,10.0,63,0.00,CLR,,0.00,WeatherDisplay:10.37,2013-03-18 05:30:00,
2013-03-18 00:35:00,23.5,12.8,29.87,SE,134,13.0,13.0,63,0.00,CLR,,0.00,WeatherDisplay:10.37,2013-03-18 05:35:00,
2013-03-18 00:40:00,23.5,12.8,29.87,SE,132,9.0,12.0,63,0.00,CLR,,0.00,WeatherDisplay:10.37,2013-03-18 05:40:00,
2013-03-18 00:45:00,23.4,13.0,29.86,SE,139,9.0,9.0,64,0.00,CLR,,0.00,WeatherDisplay:10.37,2013-03-18 05:45:00,
2013-03-18 00:50:00,23.4,13.0,29.85,SE,133,2.0,9.0,64,0.00,CLR,,0.00,WeatherDisplay:10.37,2013-03-18 05:50:00,
2013-03-18 00:55:00,23.4,13.0,29.85,SE,136,10.0,12.0,64,0.00,CLR,,0.00,WeatherDisplay:10.37,2013-03-18 05:55:00,
2013-03-18 01:00:00,23.4,13.0,29.85,SE,139,14.0,14.0,64,0.00,CLR,,0.00,WeatherDisplay:10.37,2013-03-18 06:00:00,
2013-03-18 01:05:00,23.3,12.9,29.85,SE,130,7.0,12.0,64,0.00,CLR,,0.00,WeatherDisplay:10.37,2013-03-18 06:05:00,
2013-03-18 01:10:00,23.2,12.8,29.83,SE,132,12.0,12.0,64,0.00,CLR,,0.00,WeatherDisplay:10.37,2013-03-18 06:10:00,
2013-03-18 01:15:00,23.2,13.1,29.83,SE,131,12.0,12.0,65,0.00,CLR,,0.00,WeatherDisplay:10.37,2013-03-18 06:15:00,
2013-03-18 01:20:00,23.2,13.1,29.82,ESE,122,6.0,9.0,65,0.00,CLR,,0.00,WeatherDisplay:10.37,2013-03-18 06:20:00,
2013-03-18 01:25:00,23.2,13.1,29.82,ESE,119,12.0,16.0,65,0.00,CLR,,0.00,WeatherDisplay:10.37,2013-03-18 06:25:00,
2013-03-18 01:30:00,23.2,13.5,29.81,SE,125,16.0,16.0,66,0.00,CLR,,0.00,WeatherDisplay:10.37,2013-03-18 06:30:00,
2013-03-18 01:35:00,23.2,13.5,29.81,SE,126,6.0,8.0,66,0.00,CLR,,0.00,WeatherDisplay:10.37,2013-03-18 06:35:00,
2013-03-18 01:40:00,23.2,13.5,29.81,SE,124,10.0,10.0,66,0.00,CLR,,0.00,WeatherDisplay:10.37,2013-03-18 06:40:00,
2013-03-18 01:45:00,23.2,13.5,29.80,SE,133,14.0,15.0,66,0.00,CLR,,0.00,WeatherDisplay:10.37,2013-03-18 06:45:00,
2013-03-18 01:50:00,23.2,13.5,29.80,SE,127,10.0,10.0,66,0.00,CLR,,0.00,WeatherDisplay:10.37,2013-03-18 06:50:00,
2013-03-18 01:55:00,23.2,13.5,29.79,ESE,115,12.0,12.0,66,0.00,CLR,,0.00,WeatherDisplay:10.37,2013-03-18 06:55:00,
2013-03-18 02:00:00,23.2,13.5,29.80,ESE,111,9.0,9.0,66,0.00,CLR,,0.00,WeatherDisplay:10.37,2013-03-18 07:00:00,
2013-03-18 02:05:00,23.2,13.8,29.79,ESE,117,13.0,13.0,67,0.00,CLR,,0.00,WeatherDisplay:10.37,2013-03-18 07:05:00,
2013-03-18 02:10:00,23.4,14.0,29.79,ESE,119,12.0,12.0,67,0.00,CLR,,0.00,WeatherDisplay:10.37,2013-03-18 07:10:00,
2013-03-18 02:15:00,23.2,13.8,29.79,ESE,119,6.0,10.0,67,0.00,CLR,,0.00,WeatherDisplay:10.37,2013-03-18 07:15:00,
2013-03-18 02:20:00,23.4,14.0,29.78,ESE,117,13.0,14.0,67,0.00,CLR,,0.00,WeatherDisplay:10.37,2013-03-18 07:20:00,
2013-03-18 02:25:00,23.4,14.0,29.78,ESE,118,14.0,14.0,67,0.00,CLR,,0.00,WeatherDisplay:10.37,2013-03-18 07:25:00,
2013-03-18 02:30:00,23.4,14.0,29.77,ESE,119,15.0,15.0,67,0.00,CLR,,0.00,WeatherDisplay:10.37,2013-03-18 07:30:00,
2013-03-18 02:35:00,23.4,14.0,29.77,ESE,121,15.0,15.0,67,0.00,CLR,,0.00,WeatherDisplay:10.37,2013-03-18 07:35:00,
2013-03-18 02:40:00,23.4,14.4,29.76,ESE,120,12.0,12.0,68,0.00,CLR,,0.00,WeatherDisplay:10.37,2013-03-18 07:40:00,
2013-03-18 02:45:00,23.5,14.5,29.74,ESE,120,1.0,9.0,68,0.00,CLR,,0.00,WeatherDisplay:10.37,2013-03-18 07:45:00,
2013-03-18 02:50:00,23.5,14.5,29.74,ESE,115,16.0,16.0,68,0.00,CLR,,0.00,WeatherDisplay:10.37,2013-03-18 07:50:00,
2013-03-18 02:55:00,23.5,14.9,29.73,ESE,120,13.0,14.0,69,0.00,CLR,,0.00,WeatherDisplay:10.37,2013-03-18 07:55:00,
2013-03-18 03:00:00,23.5,14.9,29.73,SE,124,14.0,17.0,69,0.00,CLR,,0.00,WeatherDisplay:10.37,2013-03-18 08:00:00,
2013-03-18 03:05:00,23.7,15.0,29.74,ESE,117,9.0,16.0,69,0.00,CLR,,0.00,WeatherDisplay:10.37,2013-03-18 08:05:00,
2013-03-18 03:10:00,23.9,15.2,29.74,ESE,105,13.0,16.0,69,0.00,CLR,,0.00,WeatherDisplay:10.37,2013-03-18 08:10:00,
2013-03-18 03:15:00,23.9,15.2,29.74,ESE,122,12.0,14.0,69,0.00,CLR,,0.00,WeatherDisplay:10.37,2013-03-18 08:15:00,
2013-03-18 03:20:00,23.9,15.2,29.74,SE,140,13.0,13.0,69,0.00,CLR,,0.00,WeatherDisplay:10.37,2013-03-18 08:20:00,
2013-03-18 03:25:00,23.9,15.2,29.74,SE,135,2.0,9.0,69,0.00,CLR,,0.00,WeatherDisplay:10.37,2013-03-18 08:25:00,
2013-03-18 03:30:00,23.9,15.2,29.75,SE,139,0.0,0.0,69,0.00,CLR,,0.00,WeatherDisplay:10.37,2013-03-18 08:30:00,
2013-03-18 03:35:00,23.9,15.2,29.73,SE,129,14.0,15.0,69,0.00,CLR,,0.00,WeatherDisplay:10.37,2013-03-18 08:35:00,
2013-03-18 03:40:00,23.9,15.2,29.74,ESE,118,9.0,9.0,69,0.00,CLR,,0.00,WeatherDisplay:10.37,2013-03-18 08:40:00,
2013-03-18 03:45:00,23.9,15.2,29.75,ESE,117,0.0,8.0,69,0.00,CLR,,0.00,WeatherDisplay:10.37,2013-03-18 08:45:00,
2013-03-18 03:50:00,23.9,15.2,29.74,SSE,149,16.0,16.0,69,0.00,CLR,,0.00,WeatherDisplay:10.37,2013-03-18 08:50:00,
2013-03-18 04:00:00,23.9,15.2,29.75,SE,134,1.0,12.0,69,0.00,CLR,,0.00,WeatherDisplay:10.37,2013-03-18 09:00:00,
2013-03-18 04:05:00,24.1,15.4,29.75,SE,124,6.0,11.0,69,0.00,CLR,,0.00,WeatherDisplay:10.37,2013-03-18 09:05:00,
2013-03-18 04:10:00,24.1,15.7,29.74,ESE,121,2.0,3.0,70,0.00,CLR,,0.00,WeatherDisplay:10.37,2013-03-18 09:10:00,
2013-03-18 04:15:00,24.1,15.7,29.74,SE,139,2.0,10.0,70,0.00,CLR,,0.00,WeatherDisplay:10.37,2013-03-18 09:15:00,
2013-03-18 04:20:00,24.1,15.7,29.73,SE,135,2.0,7.0,70,0.00,CLR,,0.00,WeatherDisplay:10.37,2013-03-18 09:20:00,
2013-03-18 04:25:00,24.1,15.7,29.72,SE,134,5.0,8.0,70,0.00,CLR,,0.00,WeatherDisplay:10.37,2013-03-18 09:25:00,
2013-03-18 04:30:00,24.1,15.7,29.72,SE,136,0.0,2.0,70,0.00,CLR,,0.00,WeatherDisplay:10.37,2013-03-18 09:30:00,
2013-03-18 04:35:00,24.1,15.7,29.71,SE,129,1.0,7.0,70,0.00,CLR,,0.00,WeatherDisplay:10.37,2013-03-18 09:35:00,
2013-03-18 04:40:00,24.1,16.0,29.71,SE,131,1.0,7.0,71,0.00,CLR,,0.00,WeatherDisplay:10.37,2013-03-18 09:40:00,
2013-03-18 04:45:00,24.1,16.0,29.71,SE,130,5.0,7.0,71,0.00,CLR,,0.00,WeatherDisplay:10.37,2013-03-18 09:45:00,
2013-03-18 04:50:00,23.9,15.9,29.71,SE,126,1.0,10.0,71,0.00,CLR,,0.00,WeatherDisplay:10.37,2013-03-18 09:50:00,
2013-03-18 04:55:00,23.9,16.2,29.70,SE,142,0.0,10.0,72,0.00,CLR,,0.00,WeatherDisplay:10.37,2013-03-18 09:55:00,
2013-03-18 05:00:00,23.7,16.3,29.70,SE,144,5.0,5.0,73,0.00,CLR,,0.00,WeatherDisplay:10.37,2013-03-18 10:00:00,
2013-03-18 05:05:00,23.5,16.5,29.70,SSE,148,8.0,8.0,74,0.00,CLR,,0.00,WeatherDisplay:10.37,2013-03-18 10:05:00,
2013-03-18 05:10:00,23.4,16.3,29.70,SSE,150,1.0,3.0,74,0.00,CLR,,0.00,WeatherDisplay:10.37,2013-03-18 10:10:00,
2013-03-18 05:15:00,23.2,16.4,29.70,SE,133,12.0,12.0,75,0.00,CLR,,0.00,WeatherDisplay:10.37,2013-03-18 10:15:00,
2013-03-18 05:20:00,23.1,16.4,29.69,SE,135,10.0,10.0,75,0.00,CLR,,0.00,WeatherDisplay:10.37,2013-03-18 10:20:00,
2013-03-18 05:25:00,23.0,16.6,29.69,SE,141,9.0,9.0,76,0.00,CLR,,0.00,WeatherDisplay:10.37,2013-03-18 10:25:00,
2013-03-18 05:30:00,22.8,16.4,29.69,SE,137,0.0,10.0,76,0.00,CLR,,0.00,WeatherDisplay:10.37,2013-03-18 10:30:00,
2013-03-18 05:35:00,22.8,16.7,29.69,ESE,119,0.0,10.0,77,0.00,CLR,,0.00,WeatherDisplay:10.37,2013-03-18 10:35:00,
2013-03-18 05:40:00,22.8,16.7,29.69,ESE,107,3.0,6.0,77,0.00,CLR,,0.00,WeatherDisplay:10.37,2013-03-18 10:40:00,
2013-03-18 05:45:00,22.8,16.7,29.68,SE,128,8.0,8.0,77,0.00,CLR,,0.00,WeatherDisplay:10.37,2013-03-18 10:45:00,
2013-03-18 05:50:00,22.8,16.7,29.68,SE,135,0.0,6.0,77,0.00,CLR,,0.00,WeatherDisplay:10.37,2013-03-18 10:50:00,
2013-03-18 05:55:00,22.8,16.7,29.67,SE,135,2.0,7.0,77,0.00,CLR,,0.00,WeatherDisplay:10.37,2013-03-18 10:55:00,
2013-03-18 06:00:00,22.8,17.0,29.68,SE,127,0.0,7.0,78,0.00,CLR,,0.00,WeatherDisplay:10.37,2013-03-18 11:00:00,
2013-03-18 06:05:00,22.8,17.0,29.67,SE,136,3.0,5.0,78,0.00,CLR,,0.00,WeatherDisplay:10.37,2013-03-18 11:05:00,
2013-03-18 06:10:00,22.8,17.0,29.68,SE,142,10.0,13.0,78,0.00,CLR,,0.00,WeatherDisplay:10.37,2013-03-18 11:10:00,
2013-03-18 06:15:00,22.8,17.0,29.67,ESE,106,8.0,13.0,78,0.00,CLR,,0.00,WeatherDisplay:10.37,2013-03-18 11:15:00,
2013-03-18 06:20:00,22.7,16.9,29.68,ESE,111,2.0,9.0,78,0.00,CLR,,0.00,WeatherDisplay:10.37,2013-03-18 11:20:00,
2013-03-18 06:25:00,22.6,16.8,29.67,SE,136,3.0,9.0,78,0.00,CLR,,0.00,WeatherDisplay:10.37,2013-03-18 11:25:00,
2013-03-18 06:30:00,22.6,16.8,29.66,SE,127,0.0,3.0,78,0.00,CLR,,0.00,WeatherDisplay:10.37,2013-03-18 11:30:00,
2013-03-18 06:35:00,22.6,16.8,29.67,SE,129,8.0,8.0,78,0.00,CLR,,0.00,WeatherDisplay:10.37,2013-03-18 11:35:00,
2013-03-18 06:40:00,22.6,17.1,29.67,SE,126,0.0,8.0,79,0.00,CLR,,0.00,WeatherDisplay:10.37,2013-03-18 11:40:00,
2013-03-18 06:45:00,22.6,17.1,29.66,ESE,112,6.0,6.0,79,0.00,CLR,,0.00,WeatherDisplay:10.37,2013-03-18 11:45:00,
2013-03-18 06:50:00,22.6,17.1,29.66,SE,125,3.0,6.0,79,0.00,CLR,,0.00,WeatherDisplay:10.37,2013-03-18 11:50:00,
2013-03-18 06:55:00,22.6,17.1,29.65,SE,132,3.0,9.0,79,0.00,CLR,,0.00,WeatherDisplay:10.37,2013-03-18 11:55:00,
2013-03-18 07:00:00,22.6,17.1,29.65,SE,146,12.0,12.0,79,0.00,CLR,,0.00,WeatherDisplay:10.37,2013-03-18 12:00:00,
2013-03-18 07:05:00,22.5,17.0,29.65,SE,126,8.0,9.0,79,0.00,CLR,,0.00,WeatherDisplay:10.37,2013-03-18 12:05:00,
2013-03-18 07:10:00,22.5,16.9,29.65,ESE,119,0.0,0.0,79,0.00,CLR,,0.00,WeatherDisplay:10.37,2013-03-18 12:10:00,
2013-03-18 07:15:00,22.5,16.9,29.65,SE,129,0.0,8.0,79,0.00,CLR,,0.00,WeatherDisplay:10.37,2013-03-18 12:15:00,
2013-03-18 07:20:00,22.3,16.8,29.64,SE,129,8.0,14.0,79,0.00,CLR,,0.00,WeatherDisplay:10.37,2013-03-18 12:20:00,
2013-03-18 07:25:00,22.3,17.0,29.64,ESE,121,3.0,14.0,80,0.00,CLR,,0.00,WeatherDisplay:10.37,2013-03-18 12:25:00,
2013-03-18 07:30:00,22.3,17.0,29.64,ESE,118,9.0,9.0,80,0.00,CLR,,0.00,WeatherDisplay:10.37,2013-03-18 12:30:00,
2013-03-18 07:35:00,22.3,17.0,29.64,ESE,119,10.0,10.0,80,0.00,CLR,,0.00,WeatherDisplay:10.37,2013-03-18 12:35:00,
2013-03-18 07:40:00,22.3,17.0,29.63,SE,128,2.0,13.0,80,0.00,CLR,,0.00,WeatherDisplay:10.37,2013-03-18 12:40:00,
2013-03-18 07:45:00,22.3,17.1,29.63,SE,132,5.0,8.0,80,0.00,CLR,,0.00,WeatherDisplay:10.37,2013-03-18 12:45:00,
2013-03-18 07:50:00,22.5,17.2,29.63,SE,132,0.0,8.0,80,0.00,CLR,,0.00,WeatherDisplay:10.37,2013-03-18 12:50:00,
2013-03-18 07:55:00,22.6,17.4,29.63,SE,133,8.0,8.0,80,0.00,CLR,,0.00,WeatherDisplay:10.37,2013-03-18 12:55:00,
2013-03-18 08:00:00,22.6,17.4,29.63,SE,126,9.0,9.0,80,0.00,CLR,,0.00,WeatherDisplay:10.37,2013-03-18 13:00:00,
2013-03-18 08:05:00,22.8,17.6,29.62,ESE,122,2.0,7.0,80,0.00,CLR,,0.00,WeatherDisplay:10.37,2013-03-18 13:05:00,
2013-03-18 08:10:00,22.8,17.6,29.62,ESE,119,8.0,8.0,80,0.00,CLR,,0.00,WeatherDisplay:10.37,2013-03-18 13:10:00,
2013-03-18 08:15:00,22.8,17.6,29.62,SE,128,0.0,10.0,80,0.00,CLR,,0.00,WeatherDisplay:10.37,2013-03-18 13:15:00,
2013-03-18 08:20:00,22.8,17.6,29.61,SE,140,10.0,10.0,80,0.00,CLR,,0.00,WeatherDisplay:10.37,2013-03-18 13:20:00,
2013-03-18 08:25:00,22.8,17.6,29.61,SE,146,1.0,6.0,80,0.00,CLR,,0.00,WeatherDisplay:10.37,2013-03-18 13:25:00,
2013-03-18 08:30:00,23.0,17.7,29.61,SE,143,0.0,0.0,80,0.00,CLR,,0.00,WeatherDisplay:10.37,2013-03-18 13:30:00,
2013-03-18 08:35:00,23.2,18.0,29.61,ESE,123,5.0,6.0,80,0.00,CLR,,0.00,WeatherDisplay:10.37,2013-03-18 13:35:00,
2013-03-18 08:40:00,23.5,18.3,29.61,SSE,149,7.0,9.0,80,0.00,CLR,,0.00,WeatherDisplay:10.37,2013-03-18 13:40:00,
2013-03-18 08:45:00,23.5,18.3,29.60,SSE,149,8.0,9.0,80,0.00,CLR,,0.00,WeatherDisplay:10.37,2013-03-18 13:45:00,
2013-03-18 08:50:00,23.8,18.6,29.60,SE,144,10.0,10.0,80,0.00,CLR,,0.00,WeatherDisplay:10.37,2013-03-18 13:50:00,
2013-03-18 08:55:00,24.1,18.8,29.60,SE,139,0.0,0.0,80,0.00,CLR,,0.00,WeatherDisplay:10.37,2013-03-18 13:55:00,
2013-03-18 09:00:00,24.1,18.8,29.60,SSE,151,0.0,10.0,80,0.00,CLR,,0.00,WeatherDisplay:10.37,2013-03-18 14:00:00,
2013-03-18 09:05:00,24.3,18.7,29.60,SSE,147,0.0,7.0,79,0.00,CLR,,0.00,WeatherDisplay:10.37,2013-03-18 14:05:00,
2013-03-18 09:10:00,24.4,18.9,29.60,SE,126,2.0,5.0,79,0.00,CLR,,0.00,WeatherDisplay:10.37,2013-03-18 14:10:00,
2013-03-18 09:15:00,24.4,18.9,29.60,ESE,117,0.0,0.0,79,0.00,CLR,,0.00,WeatherDisplay:10.37,2013-03-18 14:15:00,
2013-03-18 09:20:00,24.6,19.0,29.60,ESE,112,7.0,8.0,79,0.00,CLR,,0.00,WeatherDisplay:10.37,2013-03-18 14:20:00,
2013-03-18 09:25:00,24.6,19.0,29.59,ESE,112,1.0,2.0,79,0.00,CLR,,0.00,WeatherDisplay:10.37,2013-03-18 14:25:00,
2013-03-18 09:30:00,24.6,19.0,29.59,SE,128,0.0,7.0,79,0.00,CLR,,0.00,WeatherDisplay:10.37,2013-03-18 14:30:00,
2013-03-18 09:35:00,25.0,19.4,29.59,SE,139,0.0,7.0,79,0.00,CLR,,0.00,WeatherDisplay:10.37,2013-03-18 14:35:00,
2013-03-18 09:40:00,25.3,20.0,29.59,SE,139,2.0,3.0,80,0.00,CLR,,0.00,WeatherDisplay:10.37,2013-03-18 14:40:00,
2013-03-18 09:45:00,25.4,20.0,29.59,SE,129,0.0,16.0,80,0.00,CLR,,0.00,WeatherDisplay:10.37,2013-03-18 14:45:00,
2013-03-18 09:50:00,25.5,19.9,29.59,SSE,151,6.0,16.0,79,0.00,CLR,,0.00,WeatherDisplay:10.37,2013-03-18 14:50:00,
2013-03-18 09:55:00,25.5,19.9,29.58,SSE,151,2.0,3.0,79,0.00,CLR,,0.00,WeatherDisplay:10.37,2013-03-18 14:55:00,
2013-03-18 10:00:00,25.7,20.1,29.58,SE,139,0.0,5.0,79,0.00,CLR,,0.00,WeatherDisplay:10.37,2013-03-18 15:00:00,
2013-03-18 10:05:00,25.9,20.3,29.58,SE,130,15.0,15.0,79,0.00,CLR,,0.00,WeatherDisplay:10.37,2013-03-18 15:05:00,
2013-03-18 10:10:00,26.1,20.4,29.59,SE,130,0.0,0.0,79,0.00,CLR,,0.00,WeatherDisplay:10.37,2013-03-18 15:10:00,
2013-03-18 10:15:00,26.2,20.6,29.59,SE,144,0.0,9.0,79,0.00,CLR,,0.00,WeatherDisplay:10.37,2013-03-18 15:15:00,
2013-03-18 10:20:00,26.2,20.6,29.58,SE,137,0.0,9.0,79,0.00,CLR,,0.00,WeatherDisplay:10.37,2013-03-18 15:20:00,
2013-03-18 10:25:00,26.2,20.6,29.58,SE,139,0.0,0.0,79,0.00,CLR,,0.00,WeatherDisplay:10.37,2013-03-18 15:25:00,
2013-03-18 10:30:00,26.4,20.8,29.58,SSE,159,0.0,0.0,79,0.00,CLR,,0.00,WeatherDisplay:10.37,2013-03-18 15:30:00,
2013-03-18 10:35:00,26.6,21.0,29.58,SSE,153,0.0,0.0,79,0.00,CLR,,0.00,WeatherDisplay:10.37,2013-03-18 15:35:00,
2013-03-18 10:40:00,26.8,21.1,29.58,SSE,151,0.0,0.0,79,0.00,CLR,,0.00,WeatherDisplay:10.37,2013-03-18 15:40:00,
2013-03-18 10:45:00,27.0,21.3,29.58,South,172,1.0,7.0,79,0.00,CLR,,0.00,WeatherDisplay:10.37,2013-03-18 15:45:00,
2013-03-18 10:50:00,27.3,21.3,29.58,South,172,9.0,10.0,78,0.00,CLR,,0.00,WeatherDisplay:10.37,2013-03-18 15:50:00,
2013-03-18 10:55:00,27.5,21.5,29.58,SSE,161,6.0,9.0,78,0.00,CLR,,0.00,WeatherDisplay:10.37,2013-03-18 15:55:00,
2013-03-18 11:00:00,27.8,21.8,29.58,South,172,8.0,16.0,78,0.00,CLR,,0.00,WeatherDisplay:10.37,2013-03-18 16:00:00,
2013-03-18 11:05:00,28.2,22.2,29.58,South,180,12.0,16.0,78,0.00,CLR,,0.00,WeatherDisplay:10.37,2013-03-18 16:05:00,
2013-03-18 11:10:00,28.2,22.2,29.58,SSW,193,9.0,13.0,78,0.00,CLR,,0.00,WeatherDisplay:10.37,2013-03-18 16:10:00,
2013-03-18 11:15:00,28.6,22.9,29.58,SW,214,10.0,10.0,79,0.00,CLR,,0.00,WeatherDisplay:10.37,2013-03-18 16:15:00,
2013-03-18 11:20:00,28.6,22.9,29.58,SW,216,13.0,14.0,79,0.00,CLR,,0.00,WeatherDisplay:10.37,2013-03-18 16:20:00,
2013-03-18 11:25:00,28.6,22.9,29.58,SW,214,10.0,14.0,79,0.00,CLR,,0.00,WeatherDisplay:10.37,2013-03-18 16:25:00,
2013-03-18 11:30:00,28.6,22.9,29.58,SW,218,13.0,13.0,79,0.00,CLR,,0.00,WeatherDisplay:10.37,2013-03-18 16:30:00,
2013-03-18 11:35:00,28.6,22.9,29.58,WSW,238,10.0,10.0,79,0.00,CLR,,0.00,WeatherDisplay:10.37,2013-03-18 16:35:00,
2013-03-18 11:40:00,28.0,21.8,29.59,WSW,250,10.0,10.0,77,0.00,CLR,,0.00,WeatherDisplay:10.37,2013-03-18 16:40:00,
2013-03-18 11:45:00,27.5,20.9,29.59,West,260,9.0,9.0,76,0.00,CLR,,0.00,WeatherDisplay:10.37,2013-03-18 16:45:00,
2013-03-18 11:50:00,27.1,20.5,29.59,WSW,256,15.0,15.0,76,0.00,CLR,,0.00,WeatherDisplay:10.37,2013-03-18 16:50:00,
2013-03-18 11:55:00,26.6,19.7,29.59,West,266,13.0,14.0,75,0.00,CLR,,0.00,WeatherDisplay:10.37,2013-03-18 16:55:00,
2013-03-18 12:00:00,26.2,19.1,29.59,West,262,13.0,13.0,74,0.00,CLR,,0.00,WeatherDisplay:10.37,2013-03-18 17:00:00,
2013-03-18 12:05:00,25.7,18.6,29.59,WSW,257,17.0,17.0,74,0.00,CLR,,0.00,WeatherDisplay:10.37,2013-03-18 17:05:00,
2013-03-18 12:10:00,25.5,18.1,29.59,West,274,10.0,12.0,73,0.00,CLR,,0.00,WeatherDisplay:10.37,2013-03-18 17:10:00,
2013-03-18 12:15:00,25.3,17.9,29.59,West,276,3.0,9.0,73,0.00,CLR,,0.00,WeatherDisplay:10.37,2013-03-18 17:15:00,
2013-03-18 12:20:00,25.4,17.3,29.59,West,273,9.0,12.0,71,0.00,CLR,,0.00,WeatherDisplay:10.37,2013-03-18 17:20:00,
2013-03-18 12:25:00,25.5,17.1,29.59,West,264,9.0,12.0,70,0.00,CLR,,0.00,WeatherDisplay:10.37,2013-03-18 17:25:00,
2013-03-18 12:30:00,25.5,17.1,29.60,WSW,248,18.0,18.0,70,0.00,CLR,,0.00,WeatherDisplay:10.37,2013-03-18 17:30:00,
2013-03-18 12:35:00,25.8,17.3,29.60,WSW,246,12.0,12.0,70,0.00,CLR,,0.00,WeatherDisplay:10.37,2013-03-18 17:35:00,
2013-03-18 12:40:00,26.1,17.3,29.60,WSW,253,10.0,10.0,69,0.00,CLR,,0.00,WeatherDisplay:10.37,2013-03-18 17:40:00,
2013-03-18 12:45:00,26.1,16.9,29.60,WSW,256,3.0,10.0,68,0.00,CLR,,0.00,WeatherDisplay:10.37,2013-03-18 17:45:00,
2013-03-18 12:50:00,25.7,15.9,29.60,WSW,241,10.0,12.0,66,0.00,CLR,,0.00,WeatherDisplay:10.37,2013-03-18 17:50:00,
2013-03-18 12:55:00,26.4,16.6,29.61,WSW,248,15.0,15.0,66,0.00,CLR,,0.00,WeatherDisplay:10.37,2013-03-18 17:55:00,
2013-03-18 13:00:00,26.6,15.7,29.61,WSW,258,9.0,12.0,63,0.00,CLR,,0.00,WeatherDisplay:10.37,2013-03-18 18:00:00,
2013-03-18 13:05:00,26.8,15.5,29.61,WSW,253,12.0,22.0,62,0.00,CLR,,0.00,WeatherDisplay:10.37,2013-03-18 18:05:00,
2013-03-18 13:10:00,26.4,14.4,29.61,WSW,255,17.0,22.0,60,0.00,CLR,,0.00,WeatherDisplay:10.37,2013-03-18 18:10:00,
2013-03-18 13:15:00,25.9,13.9,29.61,West,263,14.0,16.0,60,0.00,CLR,,0.00,WeatherDisplay:10.37,2013-03-18 18:15:00,
2013-03-18 13:20:00,26.1,14.4,29.61,West,265,13.0,14.0,61,0.00,CLR,,0.00,WeatherDisplay:10.37,2013-03-18 18:20:00,
2013-03-18 13:25:00,26.3,14.7,29.61,West,270,16.0,21.0,61,0.00,CLR,,0.00,WeatherDisplay:10.37,2013-03-18 18:25:00,
2013-03-18 13:30:00,26.5,14.5,29.61,West,268,22.0,22.0,60,0.00,CLR,,0.00,WeatherDisplay:10.37,2013-03-18 18:30:00,
2013-03-18 13:35:00,27.4,15.0,29.61,WSW,257,9.0,9.0,59,0.00,CLR,,0.00,WeatherDisplay:10.37,2013-03-18 18:35:00,
2013-03-18 13:40:00,27.5,14.2,29.60,WSW,253,9.0,9.0,57,0.00,CLR,,0.00,WeatherDisplay:10.37,2013-03-18 18:40:00,
2013-03-18 13:45:00,27.5,14.7,29.60,WSW,257,15.0,15.0,58,0.00,CLR,,0.00,WeatherDisplay:10.37,2013-03-18 18:45:00,
2013-03-18 13:50:00,27.7,14.0,29.60,West,268,12.0,16.0,56,0.00,CLR,,0.00,WeatherDisplay:10.37,2013-03-18 18:50:00,
2013-03-18 13:55:00,27.0,14.1,29.60,West,263,10.0,16.0,58,0.00,CLR,,0.00,WeatherDisplay:10.37,2013-03-18 18:55:00,
2013-03-18 14:00:00,27.1,14.3,29.61,WSW,257,12.0,12.0,58,0.00,CLR,,0.00,WeatherDisplay:10.37,2013-03-18 19:00:00,
2013-03-18 14:05:00,25.7,13.0,29.61,WSW,256,16.0,22.0,58,0.00,CLR,,0.00,WeatherDisplay:10.37,2013-03-18 19:05:00,
2013-03-18 14:10:00,25.0,12.3,29.61,WSW,257,20.0,22.0,58,0.00,CLR,,0.00,WeatherDisplay:10.37,2013-03-18 19:10:00,
2013-03-18 14:15:00,24.6,11.9,29.61,West,262,10.0,16.0,58,0.00,CLR,,0.00,WeatherDisplay:10.37,2013-03-18 19:15:00,
2013-03-18 14:20:00,24.1,11.4,29.61,West,259,20.0,20.0,58,0.00,CLR,,0.00,WeatherDisplay:10.37,2013-03-18 19:20:00,
2013-03-18 14:25:00,24.4,11.8,29.61,WSW,247,16.0,16.0,58,0.00,CLR,,0.00,WeatherDisplay:10.37,2013-03-18 19:25:00,
2013-03-18 14:30:00,24.1,11.4,29.60,WSW,243,12.0,16.0,58,0.00,CLR,,0.00,WeatherDisplay:10.37,2013-03-18 19:30:00,
2013-03-18 14:35:00,24.4,11.7,29.60,WSW,255,9.0,10.0,58,0.00,CLR,,0.00,WeatherDisplay:10.37,2013-03-18 19:35:00,
2013-03-18 14:40:00,24.4,11.4,29.60,West,271,10.0,10.0,57,0.00,CLR,,0.00,WeatherDisplay:10.37,2013-03-18 19:40:00,
2013-03-18 14:45:00,24.2,11.6,29.60,West,259,15.0,15.0,58,0.00,CLR,,0.00,WeatherDisplay:10.37,2013-03-18 19:45:00,
2013-03-18 14:50:00,24.6,11.5,29.60,West,262,12.0,15.0,57,0.00,CLR,,0.00,WeatherDisplay:10.37,2013-03-18 19:50:00,
2013-03-18 14:55:00,24.6,11.5,29.60,West,260,15.0,15.0,57,0.00,CLR,,0.00,WeatherDisplay:10.37,2013-03-18 19:55:00,
2013-03-18 15:00:00,24.6,11.5,29.60,WSW,252,12.0,12.0,57,0.00,CLR,,0.00,WeatherDisplay:10.37,2013-03-18 20:00:00,
2013-03-18 15:05:00,25.0,11.9,29.60,WSW,248,7.0,15.0,57,0.00,CLR,,0.00,WeatherDisplay:10.37,2013-03-18 20:05:00,
2013-03-18 15:10:00,24.8,11.7,29.60,WSW,245,18.0,18.0,57,0.00,CLR,,0.00,WeatherDisplay:10.37,2013-03-18 20:10:00,
2013-03-18 15:15:00,25.2,12.0,29.60,WSW,255,10.0,16.0,57,0.00,CLR,,0.00,WeatherDisplay:10.37,2013-03-18 20:15:00,
2013-03-18 15:20:00,25.2,11.3,29.60,West,259,24.0,24.0,55,0.00,CLR,,0.00,WeatherDisplay:10.37,2013-03-18 20:20:00,
2013-03-18 15:25:00,24.8,11.3,29.61,SW,236,17.0,23.0,56,0.00,CLR,,0.00,WeatherDisplay:10.37,2013-03-18 20:25:00,
2013-03-18 15:30:00,24.4,10.5,29.61,WSW,244,10.0,17.0,55,0.00,CLR,,0.00,WeatherDisplay:10.37,2013-03-18 20:30:00,
2013-03-18 15:35:00,24.1,10.6,29.61,West,270,10.0,10.0,56,0.00,CLR,,0.00,WeatherDisplay:10.37,2013-03-18 20:35:00,
2013-03-18 15:40:00,24.4,11.4,29.60,WSW,257,12.0,14.0,57,0.00,CLR,,0.00,WeatherDisplay:10.37,2013-03-18 20:40:00,
2013-03-18 15:45:00,24.6,11.1,29.61,WSW,255,10.0,10.0,56,0.00,CLR,,0.00,WeatherDisplay:10.37,2013-03-18 20:45:00,
2013-03-18 15:50:00,24.1,10.2,29.61,West,262,8.0,10.0,55,0.00,CLR,,0.00,WeatherDisplay:10.37,2013-03-18 20:50:00,
2013-03-18 15:55:00,24.1,10.6,29.61,WSW,258,10.0,12.0,56,0.00,CLR,,0.00,WeatherDisplay:10.37,2013-03-18 20:55:00,
2013-03-18 16:00:00,24.1,10.6,29.61,West,261,12.0,13.0,56,0.00,CLR,,0.00,WeatherDisplay:10.37,2013-03-18 21:00:00,
2013-03-18 16:05:00,23.9,10.5,29.61,West,264,22.0,22.0,56,0.00,CLR,,0.00,WeatherDisplay:10.37,2013-03-18 21:05:00,
2013-03-18 16:10:00,23.7,10.3,29.61,WSW,249,18.0,18.0,56,0.00,CLR,,0.00,WeatherDisplay:10.37,2013-03-18 21:10:00,
2013-03-18 16:15:00,22.7,9.3,29.61,WSW,249,9.0,15.0,56,0.00,CLR,,0.00,WeatherDisplay:10.37,2013-03-18 21:15:00,
2013-03-18 16:20:00,22.1,9.6,29.61,West,268,13.0,13.0,58,0.00,CLR,,0.00,WeatherDisplay:10.37,2013-03-18 21:20:00,
2013-03-18 16:25:00,21.9,9.4,29.62,West,273,1.0,8.0,58,0.00,CLR,,0.00,WeatherDisplay:10.37,2013-03-18 21:25:00,
2013-03-18 16:30:00,21.9,9.4,29.62,West,268,12.0,12.0,58,0.00,CLR,,0.00,WeatherDisplay:10.37,2013-03-18 21:30:00,
2013-03-18 16:35:00,21.9,9.4,29.62,WSW,258,9.0,10.0,58,0.00,CLR,,0.00,WeatherDisplay:10.37,2013-03-18 21:35:00,
2013-03-18 16:40:00,21.9,9.4,29.62,WSW,240,23.0,23.0,58,0.00,CLR,,0.00,WeatherDisplay:10.37,2013-03-18 21:40:00,
2013-03-18 16:50:00,21.9,9.4,29.62,West,267,6.0,8.0,58,0.00,CLR,,0.00,WeatherDisplay:10.37,2013-03-18 21:50:00,
2013-03-18 16:55:00,21.9,9.8,29.62,West,268,13.0,13.0,59,0.00,CLR,,0.00,WeatherDisplay:10.37,2013-03-18 21:55:00,
2013-03-18 17:00:00,21.7,9.2,29.62,West,270,6.0,13.0,58,0.00,CLR,,0.00,WeatherDisplay:10.37,2013-03-18 22:00:00,
2013-03-18 17:05:00,21.6,9.4,29.62,West,266,6.0,8.0,59,0.00,CLR,,0.00,WeatherDisplay:10.37,2013-03-18 22:05:00,
2013-03-18 17:10:00,21.9,9.8,29.63,WSW,253,10.0,10.0,59,0.00,CLR,,0.00,WeatherDisplay:10.37,2013-03-18 22:10:00,
2013-03-18 17:15:00,22.0,9.9,29.63,West,259,8.0,10.0,59,0.00,CLR,,0.00,WeatherDisplay:10.37,2013-03-18 22:15:00,
2013-03-18 17:20:00,21.6,9.4,29.62,WSW,257,6.0,9.0,59,0.00,CLR,,0.00,WeatherDisplay:10.37,2013-03-18 22:20:00,
2013-03-18 17:25:00,21.0,8.9,29.63,West,262,8.0,8.0,59,0.00,CLR,,0.00,WeatherDisplay:10.37,2013-03-18 22:25:00,
2013-03-18 17:30:00,20.7,9.0,29.63,WSW,254,13.0,15.0,60,0.00,CLR,,0.00,WeatherDisplay:10.37,2013-03-18 22:30:00,
2013-03-18 17:35:00,20.5,8.8,29.63,West,267,7.0,15.0,60,0.00,CLR,,0.00,WeatherDisplay:10.37,2013-03-18 22:35:00,
2013-03-18 17:40:00,20.8,9.1,29.63,West,274,12.0,12.0,60,0.00,CLR,,0.00,WeatherDisplay:10.37,2013-03-18 22:40:00,
2013-03-18 17:45:00,21.0,8.9,29.63,West,275,15.0,19.0,59,0.00,CLR,,0.00,WeatherDisplay:10.37,2013-03-18 22:45:00,
2013-03-18 17:50:00,21.0,9.3,29.63,WNW,282,12.0,19.0,60,0.00,CLR,,0.00,WeatherDisplay:10.37,2013-03-18 22:50:00,
2013-03-18 17:55:00,21.2,9.5,29.63,West,270,6.0,12.0,60,0.00,CLR,,0.00,WeatherDisplay:10.37,2013-03-18 22:55:00,
2013-03-18 18:00:00,21.3,9.6,29.63,WSW,257,9.0,9.0,60,0.00,CLR,,0.00,WeatherDisplay:10.37,2013-03-18 23:00:00,
2013-03-18 18:05:00,21.0,8.9,29.64,West,267,14.0,20.0,59,0.00,CLR,,0.00,WeatherDisplay:10.37,2013-03-18 23:05:00,
2013-03-18 18:10:00,20.8,9.1,29.63,West,268,10.0,20.0,60,0.00,CLR,,0.00,WeatherDisplay:10.37,2013-03-18 23:10:00,
2013-03-18 18:15:00,20.1,8.4,29.63,West,277,9.0,12.0,60,0.00,CLR,,0.00,WeatherDisplay:10.37,2013-03-18 23:15:00,
2013-03-18 18:20:00,19.7,8.4,29.64,West,274,14.0,14.0,61,0.00,CLR,,0.00,WeatherDisplay:10.37,2013-03-18 23:20:00,
2013-03-18 18:25:00,19.4,8.5,29.64,West,260,9.0,12.0,62,0.00,CLR,,0.00,WeatherDisplay:10.37,2013-03-18 23:25:00,
2013-03-18 18:30:00,19.2,8.7,29.64,West,261,10.0,11.0,63,0.00,CLR,,0.00,WeatherDisplay:10.37,2013-03-18 23:30:00,
2013-03-18 18:35:00,19.2,8.7,29.64,West,266,8.0,8.0,63,0.00,CLR,,0.00,WeatherDisplay:10.37,2013-03-18 23:35:00,
2013-03-18 18:40:00,19.2,9.0,29.64,West,266,8.0,11.0,64,0.00,CLR,,0.00,WeatherDisplay:10.37,2013-03-18 23:40:00,
2013-03-18 18:45:00,19.0,9.2,29.64,West,265,9.0,14.0,65,0.00,CLR,,0.00,WeatherDisplay:10.37,2013-03-18 23:45:00,
2013-03-18 18:50:00,19.0,9.2,29.64,West,260,8.0,14.0,65,0.00,CLR,,0.00,WeatherDisplay:10.37,2013-03-18 23:50:00,
2013-03-18 18:55:00,19.2,9.4,29.64,WSW,252,14.0,21.0,65,0.00,CLR,,0.00,WeatherDisplay:10.37,2013-03-18 23:55:00,
2013-03-18 19:00:00,19.2,9.4,29.64,WSW,251,18.0,18.0,65,0.00,CLR,,0.00,WeatherDisplay:10.37,2013-03-19 00:00:00,
2013-03-18 19:05:00,19.6,9.7,29.65,WSW,252,17.0,17.0,65,0.00,CLR,,0.00,WeatherDisplay:10.37,2013-03-19 00:05:00,
2013-03-18 19:15:00,19.2,9.0,29.65,WNW,291,5.0,21.0,64,0.00,CLR,,0.00,WeatherDisplay:10.37,2013-03-19 00:15:00,
2013-03-18 19:20:00,19.1,8.9,29.65,WNW,286,13.0,16.0,64,0.00,CLR,,0.00,WeatherDisplay:10.37,2013-03-19 00:20:00,
2013-03-18 19:30:00,18.7,8.5,29.66,West,268,9.0,15.0,64,0.00,CLR,,0.00,WeatherDisplay:10.37,2013-03-19 00:30:00,
2013-03-18 19:35:00,18.5,8.7,29.66,WNW,286,13.0,13.0,65,0.00,CLR,,0.00,WeatherDisplay:10.37,2013-03-19 00:35:00,
2013-03-18 19:40:00,18.3,8.5,29.66,WNW,291,13.0,13.0,65,0.00,CLR,,0.00,WeatherDisplay:10.37,2013-03-19 00:40:00,
2013-03-18 19:45:00,18.3,8.5,29.66,West,278,10.0,13.0,65,0.00,CLR,,0.00,WeatherDisplay:10.37,2013-03-19 00:45:00,
2013-03-18 19:50:00,18.1,8.7,29.66,West,274,6.0,8.0,66,0.00,CLR,,0.00,WeatherDisplay:10.37,2013-03-19 00:50:00,
2013-03-18 19:55:00,18.1,8.7,29.66,WNW,292,16.0,16.0,66,0.00,CLR,,0.00,WeatherDisplay:10.37,2013-03-19 00:55:00,
2013-03-18 20:00:00,18.0,8.5,29.66,WNW,282,14.0,14.0,66,0.00,CLR,,0.00,WeatherDisplay:10.37,2013-03-19 01:00:00,
2013-03-18 20:05:00,18.0,8.8,29.66,West,275,12.0,12.0,67,0.00,CLR,,0.00,WeatherDisplay:10.37,2013-03-19 01:05:00,
2013-03-18 20:10:00,17.8,8.7,29.67,West,276,9.0,9.0,67,0.00,CLR,,0.00,WeatherDisplay:10.37,2013-03-19 01:10:00,
2013-03-18 20:15:00,17.6,8.5,29.67,West,270,14.0,14.0,67,0.00,CLR,,0.00,WeatherDisplay:10.37,2013-03-19 01:15:00,
2013-03-18 20:20:00,17.4,8.3,29.67,West,263,10.0,12.0,67,0.00,CLR,,0.00,WeatherDisplay:10.37,2013-03-19 01:20:00,
2013-03-18 20:25:00,17.3,8.5,29.67,West,264,13.0,13.0,68,0.00,CLR,,0.00,WeatherDisplay:10.37,2013-03-19 01:25:00,
2013-03-18 20:30:00,17.1,8.3,29.67,West,274,24.0,24.0,68,0.00,CLR,,0.00,WeatherDisplay:10.37,2013-03-19 01:30:00,
2013-03-18 20:35:00,16.9,7.8,29.67,West,275,14.0,14.0,67,0.00,CLR,,0.00,WeatherDisplay:10.37,2013-03-19 01:35:00,
2013-03-18 20:40:00,16.7,7.6,29.67,WNW,284,24.0,24.0,67,0.00,CLR,,0.00,WeatherDisplay:10.37,2013-03-19 01:40:00,
2013-03-18 20:45:00,16.7,7.6,29.67,WNW,285,12.0,21.0,67,0.00,CLR,,0.00,WeatherDisplay:10.37,2013-03-19 01:45:00,
2013-03-18 20:50:00,16.3,7.3,29.67,WNW,284,14.0,14.0,67,0.00,CLR,,0.00,WeatherDisplay:10.37,2013-03-19 01:50:00,
2013-03-18 20:55:00,16.3,7.3,29.68,WNW,288,22.0,22.0,67,0.00,CLR,,0.00,WeatherDisplay:10.37,2013-03-19 01:55:00,
2013-03-18 21:00:00,16.2,7.1,29.68,WNW,286,10.0,20.0,67,0.00,CLR,,0.00,WeatherDisplay:10.37,2013-03-19 02:00:00,
2013-03-18 21:05:00,16.0,6.6,29.68,WNW,282,7.0,9.0,66,0.00,CLR,,0.00,WeatherDisplay:10.37,2013-03-19 02:05:00,
2013-03-18 21:10:00,16.0,6.6,29.69,WNW,287,10.0,10.0,66,0.00,CLR,,0.00,WeatherDisplay:10.37,2013-03-19 02:10:00,
2013-03-18 21:15:00,16.2,6.8,29.69,WNW,302,16.0,16.0,66,0.00,CLR,,0.00,WeatherDisplay:10.37,2013-03-19 02:15:00,
2013-03-18 21:20:00,16.2,6.8,29.69,WNW,284,13.0,16.0,66,0.00,CLR,,0.00,WeatherDisplay:10.37,2013-03-19 02:20:00,
2013-03-18 21:25:00,16.2,6.8,29.69,West,268,17.0,17.0,66,0.00,CLR,,0.00,WeatherDisplay:10.37,2013-03-19 02:25:00,
2013-03-18 21:30:00,16.0,6.7,29.69,West,277,13.0,15.0,66,0.00,CLR,,0.00,WeatherDisplay:10.37,2013-03-19 02:30:00,
2013-03-18 21:35:00,16.0,6.3,29.69,WNW,286,8.0,9.0,65,0.00,CLR,,0.00,WeatherDisplay:10.37,2013-03-19 02:35:00,
2013-03-18 21:40:00,15.7,6.3,29.70,West,275,9.0,9.0,66,0.00,CLR,,0.00,WeatherDisplay:10.37,2013-03-19 02:40:00,
2013-03-18 21:45:00,15.6,6.2,29.70,West,278,9.0,15.0,66,0.00,CLR,,0.00,WeatherDisplay:10.37,2013-03-19 02:45:00,
2013-03-18 21:50:00,15.3,5.9,29.70,West,267,17.0,17.0,66,0.00,CLR,,0.00,WeatherDisplay:10.37,2013-03-19 02:50:00,
2013-03-18 21:55:00,15.1,5.8,29.71,West,268,13.0,13.0,66,0.00,CLR,,0.00,WeatherDisplay:10.37,2013-03-19 02:55:00,
2013-03-18 22:00:00,14.9,5.6,29.71,WNW,283,7.0,14.0,66,0.00,CLR,,0.00,WeatherDisplay:10.37,2013-03-19 03:00:00,
2013-03-18 22:05:00,14.7,5.4,29.71,WNW,287,15.0,18.0,66,0.00,CLR,,0.00,WeatherDisplay:10.37,2013-03-19 03:05:00,
2013-03-18 22:10:00,14.7,5.4,29.72,West,281,10.0,10.0,66,0.00,CLR,,0.00,WeatherDisplay:10.37,2013-03-19 03:10:00,
2013-03-18 22:15:00,14.5,5.2,29.72,WNW,286,9.0,21.0,66,0.00,CLR,,0.00,WeatherDisplay:10.37,2013-03-19 03:15:00,
2013-03-18 22:20:00,14.2,4.9,29.72,NW,313,10.0,21.0,66,0.00,CLR,,0.00,WeatherDisplay:10.37,2013-03-19 03:20:00,
2013-03-18 22:25:00,14.2,4.9,29.72,WNW,295,12.0,12.0,66,0.00,CLR,,0.00,WeatherDisplay:10.37,2013-03-19 03:25:00,
2013-03-18 22:30:00,14.2,4.9,29.72,WNW,285,13.0,13.0,66,0.00,CLR,,0.00,WeatherDisplay:10.37,2013-03-19 03:30:00,
2013-03-18 22:35:00,13.8,4.6,29.73,WNW,287,8.0,9.0,66,0.00,CLR,,0.00,WeatherDisplay:10.37,2013-03-19 03:35:00,
2013-03-18 22:40:00,13.8,4.5,29.73,West,279,9.0,9.0,66,0.00,CLR,,0.00,WeatherDisplay:10.37,2013-03-19 03:40:00,
2013-03-18 22:45:00,13.8,4.5,29.73,West,278,2.0,15.0,66,0.00,CLR,,0.00,WeatherDisplay:10.37,2013-03-19 03:45:00,
2013-03-18 22:50:00,13.6,4.4,29.73,West,278,8.0,10.0,66,0.00,CLR,,0.00,WeatherDisplay:10.37,2013-03-19 03:50:00,
2013-03-18 22:55:00,13.6,4.4,29.74,WNW,300,24.0,24.0,66,0.00,CLR,,0.00,WeatherDisplay:10.37,2013-03-19 03:55:00,
2013-03-18 23:05:00,13.6,4.4,29.74,NW,310,18.0,21.0,66,0.00,CLR,,0.00,WeatherDisplay:10.37,2013-03-19 04:05:00,
2013-03-18 23:10:00,13.6,4.4,29.74,NW,310,12.0,14.0,66,0.00,CLR,,0.00,WeatherDisplay:10.37,2013-03-19 04:10:00,
2013-03-18 23:15:00,13.3,4.1,29.74,WNW,292,3.0,16.0,66,0.00,CLR,,0.00,WeatherDisplay:10.37,2013-03-19 04:15:00,
2013-03-18 23:20:00,13.1,3.9,29.74,West,273,7.0,16.0,66,0.00,CLR,,0.00,WeatherDisplay:10.37,2013-03-19 04:20:00,
2013-03-18 23:25:00,13.1,3.9,29.74,West,270,12.0,12.0,66,0.00,CLR,,0.00,WeatherDisplay:10.37,2013-03-19 04:25:00,
2013-03-18 23:30:00,12.9,3.7,29.74,WNW,287,8.0,9.0,66,0.00,CLR,,0.00,WeatherDisplay:10.37,2013-03-19 04:30:00,
2013-03-18 23:35:00,12.7,3.5,29.74,WNW,283,10.0,13.0,66,0.00,CLR,,0.00,WeatherDisplay:10.37,2013-03-19 04:35:00,
2013-03-18 23:45:00,12.5,3.3,29.74,WNW,293,9.0,14.0,66,0.00,CLR,,0.00,WeatherDisplay:10.37,2013-03-19 04:45:00,
2013-03-18 23:50:00,12.4,3.5,29.74,WNW,293,12.0,12.0,67,0.00,CLR,,0.00,WeatherDisplay:10.37,2013-03-19 04:50:00,
2013-03-18 23:55:00,12.2,3.0,29.74,NW,312,15.0,15.0,66,0.00,CLR,,0.00,WeatherDisplay:10.37,2013-03-19 04:55:00,